MEASAT-3A

Last updated on Tue Sep 16 2025 00:02:46 GMT+0000 (Coordinated Universal Time)

1 35362U 09032A 25258.50111728 -.00000127 00000+0 00000+0 0 9999 2 35362 0.0038 51.4122 0002033 144.8518 138.8498 1.00271669 5273
UTC large
Height (km)
Speed (km/s)
/
Latitude / Longitude
Inclination (degrees)
Orbital Period (minutes)
Azimuth
Elevation
Range (km)
Doppler Factor

Next 0 passes for location: London (51.5072 / 0.1276)

Sorry there are no passes over London.